OpenBCM V1.13 (Linux)

Packet Radio Mailbox

DB0FHN

[JN59NK Nuernberg]

 Login: GUEST





  
CX2SA  > KEPS     27.08.26 22:33l 318 Lines 15148 Bytes #999 (0) @ AMSAT
BID : ORB26219.1
Read: DJ6UX GUEST
Subj: 2Line Orbital Elements 26219.AMSAT
Path: DB0FHN<DB0LHR<OK1TOR<OE2XZR<OE6XPE<DB0RKB<DK0WUE<HB9ON<HB9ON<PI8ZTM<
      CX2SA
Sent: 260814/0024Z @:CX2SA.SAL.URY.SOAM #:2958 [Salto] FBB7.00e $:ORB26219.1
From: CX2SA@CX2SA.SAL.URY.SOAM
To  : KEPS@AMSAT


QST de W1STR

AMSAT Orbital Elements for Amateur Satellites in TLE Format
>From Orbital Analysis Office
New England Sci-Tech STEM Education Center
Natick MA August 07, 2026
To all radio amateurs


These element sets describe the orbits of various satellites
in use by the amateur radio community. For details see:
www.amsat.org/keplerian-elements-formats/

A daily update of element sets is available at:
www.amsat.org/tle/daily-bulletin.txt
or without bulletin text:
www.amsat.org/tle/dailytle.txt


AO-07
1 07530U 74089B   26218.58654803 -.00000046  00000-0 -28448-6 0  9995
2 07530 101.9914 232.3593 0012491  36.6401  76.2293 12.53698924366830
UO-11
1 14781U 84021B   26218.49238452  .00000861  00000-0  92939-4 0  9993
2 14781  97.8101 183.5204 0008293  28.8957 331.2719 14.90905439264623
LO-19
1 20442U 90005G   26218.55471967  .00000039  00000-0  30716-4 0  9992
2 20442  98.8845 241.7455 0012525  61.4211 298.8232 14.34136212909610
AO-27
1 22825U 93061C   26218.41472839  .00000030  00000-0  28521-4 0  9990
2 22825  98.6848 285.8018 0007529 319.0135  41.0481 14.30953966714186
FO-29
1 24278U 96046B   26218.51114599 -.00000001  00000-0  37369-4 0  9996
2 24278  98.5204  60.4848 0349251 326.0141  31.9060 13.53276409479979
GO-32
1 25397U 98043D   26218.56894478  .00000025  00000-0  31127-4 0  9995
2 25397  99.0106 212.6067 0002366  80.2762 279.8683 14.24437106458506
ISS
1 25544U 98067A   26218.50541180  .00004487  00000-0  88448-4 0  9992
2 25544  51.6323  51.0716 0007293  18.8673 341.2584 15.49364501579552
NO-44
1 26931U 01043C   26218.44770519  .00000038  00000-0  45330-4 0  9995
2 26931  67.0508 114.2756 0005712 268.6635  91.3813 14.31972838297645
SO-50
1 27607U 02058C   26218.59304799  .00000748  00000-0  10568-3 0  9994
2 27607  64.5536 333.0186 0073784 253.2133 106.0869 14.83145941271937
CO-55
1 27844U 03031E   26217.98299386  .00000167  00000-0  91108-4 0  9991
2 27844  98.6755 225.9192 0010470  46.2725 313.9319 14.24363246198760
RS-22
1 27939U 03042A   26218.67137725  .00000366  00000-0  64581-4 0  9999
2 27939  98.3490  44.4638 0012469 106.2671 342.7601 14.73550028222980
CO-65
1 32785U 08021C   26218.75482007  .00003055  00000-0  19270-3 0  9993
2 32785  97.8321 201.2527 0007784 205.6875 154.3967 15.09888667992828
CO-66
1 32791U 08021J   26218.50776776  .00010279  00000-0  31094-3 0  9996
2 32791  97.7548 218.8764 0004821 116.0541 244.1198 15.34399595995008
RS-30
1 32953U 08025A   26218.71919074  .00000047  00000-0  26563-3 0  9990
2 32953  82.5075 324.0110 0019418 198.0922 161.9469 12.43181841825976
SRMSAT
1 37841U 11058D   26218.42905229  .00000342  00000-0  41813-4 0  9990
2 37841  19.9714 115.3605 0011715  37.4615 119.7102 14.11585226764922
ZACUBE-1
1 39417U 13066B   26218.46121844  .00002633  00000-0  20454-3 0  9991
2 39417  97.7988 181.0356 0043348  83.7693 276.8466 15.01475123688275
Delfi-N3xt
1 39428U 13066N   26218.76639937  .00004297  00000-0  37077-3 0  9990
2 39428  97.8296 139.0398 0074796  39.3169 321.3449 14.95651551682189
GOMX-1
1 39430U 13066Q   26218.77644987  .00001003  00000-0  15730-3 0  9999
2 39430  97.6461  56.0485 0126812 275.1188  83.5556 14.69590957677348
LO-74
1 39440U 13066AA  26218.43075241  .00001247  00000-0  11893-3 0  9990
2 39440  97.8927 167.6416 0055910 219.5421 140.1714 14.94090913684498
AO-73
1 39444U 13066AE  26218.16117730  .00004124  00000-0  25315-3 0  9995
2 39444  97.8314 190.6823 0036891  36.3587 324.0137 15.10127543687208
DTUSAT-2
1 40030U 14033W   26217.96161750  .00004505  00000-0  24085-3 0  9997
2 40030  98.0898 218.8774 0009463  71.1834 289.0422 15.15616895660224
LILACSAT-2
1 40908U 15049K   26218.61873116  .00010869  00000-0  17502-3 0  9994
2 40908  97.4614 257.4224 0008416  77.3680 282.8514 15.53106140603577
Lapan A3
1 41603U 16040E   26218.63947313  .00002323  00000-0  74198-4 0  9993
2 41603  97.1525 213.1460 0009882 182.9804 177.1382 15.33402101562542
CAS-2T
1 41847U 16066G   26218.45043102  .00000345  00000-0  58060-4 0  9996
2 41847  98.3796 293.6118 0340869 337.2528  21.3858 14.44799602512054
TechnoSat
1 42829U 17042E   26218.44383807  .00002259  00000-0  16207-3 0  9992
2 42829  97.4346  14.2148 0016116 283.3215  76.6215 15.05220923494260
AO-91
1 43017U 17073E   26218.60262942  .00004311  00000-0  18648-3 0  9992
2 43017  97.4635  84.7905 0149467 153.8629 207.0248 15.13366628473018
S-Net D
1 43186U 18014G   26218.53015831  .00002544  00000-0  13176-3 0  9997
2 43186  97.5299 123.0068 0007523 190.9165 169.1907 15.17102209466392
S-Net B
1 43187U 18014H   26218.54261721  .00002905  00000-0  15008-3 0  9997
2 43187  97.5304 123.0073 0008292 187.1726 172.9390 15.17070890466399
S-Net A
1 43188U 18014J   26218.46280477  .00002546  00000-0  13183-3 0  9991
2 43188  97.5314 123.1465 0008122 187.8596 172.2511 15.17110104466381
S-Net C
1 43189U 18014K   26218.61274256  .00002974  00000-0  15354-3 0  9994
2 43189  97.5331 123.3780 0009716 181.8049 178.3151 15.17061423464957
Ten-Koh
1 43677U 18084G   26218.51962698  .00000732  00000-0  59159-4 0  9998
2 43677  98.0755  53.0083 0008325 318.7756  41.2838 15.03124953423724
PO-101
1 43678U 18084H   26218.58249237  .00001163  00000-0  97152-4 0  9997
2 43678  98.1219  57.0051 0011193  11.3111 348.8361 15.00634602423774
QO-100
1 43700U 18090A   26218.51792012  .00000149  00000-0  00000-0 0  9992
2 43700   0.0076 114.2722 0002584  61.1120 351.9117  1.00273125 28185
MinXSS-2
1 43758U 18099A   26218.16903861  .00024212  00000-0  42573-3 0  9992
2 43758  97.4489 296.0364 0007742  90.8949 269.3189 15.50452147421862
AO-95
1 43770U 18099N   26218.13562440  .00006493  00000-0  24221-3 0  9998
2 43770  97.4346 278.2221 0009249 161.0445 199.1141 15.27720270420842
SNUSat 2
1 43782U 18099AA  26218.62167725  .00004718  00000-0  20591-3 0  9996
2 43782  97.4027 271.2447 0011847 116.3384 243.9070 15.22565010420704
SnugLite
1 43784U 18099AC  26218.57871117  .00006024  00000-0  22175-3 0  9991
2 43784  97.3835 272.3878 0004634 108.0042 252.1703 15.28213862421018
ITASat 1
1 43786U 18099AE  26218.60195596  .00003521  00000-0  16805-3 0  9999
2 43786  97.3995 269.1168 0012862 168.7053 191.4473 15.19638395420560
EAGLET 1
1 43790U 18099AJ  26218.57679806  .00002094  00000-0  12115-3 0  9995
2 43790  97.4197 266.9118 0011578 163.2232 196.9385 15.13285805419953
ESEO
1 43792U 18099AL  26218.60045156  .00000630  00000-0  49234-4 0  9993
2 43792  97.3936 253.8267 0012565 154.5575 205.6272 15.04377464419388
JO-97
1 43803U 18099AX  26218.44015184  .00010043  00000-0  29578-3 0  9993
2 43803  97.4090 281.4930 0007196  95.6445 264.5619 15.35222007421335
Suomi 100
1 43804U 18099AY  26218.14131239  .00007330  00000-0  25817-3 0  9998
2 43804  97.4153 278.3767 0011475 103.9336 256.3182 15.29542106421057
ISAT
1 43879U 18111D   26218.56248183  .00118442  00000-0  72887-3 0  9994
2 43879  97.5821 158.0590 0009419 113.0447 247.1812 15.76804649419072
UWE-4
1 43880U 18111E   26217.74253580  .00023117  00000-0  42492-3 0  9995
2 43880  97.5826 148.5254 0009280 129.7146 230.4924 15.49184586418446
Sparrow
1 43881U 18111F   26218.38454675  .00615570  18012-3  10036-2 0  9998
2 43881  97.6014 164.8326 0011446 150.8180 209.3741 16.03220416419322
Prox-1
1 44339U 19036A   26218.04400439  .00007575  00000-0  70620-3 0  9997
2 44339  23.9937 140.9161 0005928 251.1661 108.8195 14.91715096380923
Taurus 1
1 44530U 19059C   26218.60061654  .00001902  00000-0  30776-3 0  9995
2 44530  98.6467  26.5877 0009320 147.9520 212.2254 14.72581602366060
TO-108
1 44881U 19093C   26218.66253919  .00000084  00000-0  15520-4 0  9996
2 44881  97.7497 289.6580 0012078 283.1542  76.8326 14.86589070358917
RS-44
1 44909U 19096E   26218.58758242  .00000013  00000-0  53220-5 0  9992
2 44909  82.5236 306.2201 0217868  26.8192 334.3978 12.79748764308797
SALSAT
1 46495U 20068K   26218.56538891  .00004433  00000-0  15314-3 0  9999
2 46495  97.8876 224.7266 0011262 121.0750 239.1596 15.30464688323066
CSS (TIANHE-1)
1 48274U 21035A   26218.51587176  .00011813  00000-0  15232-3 0  9995
2 48274  41.4697  16.4750 0001032 270.3877  89.6843 15.58852378301027
TeikyoSat 4
1 49396U 21102B   26218.56371508  .00001376  00000-0  89119-4 0  9990
2 49396  97.3657 246.0886 0013593 116.3342 243.9285 15.09669105260323
Z-Sat
1 49399U 21102E   26218.61080038  .00001977  00000-0  98352-4 0  9990
2 49399  97.3309 252.4068 0018323  73.3321 286.9924 15.18626120261090
KOSEN 1
1 49402U 21102H   26218.59405902  .00004359  00000-0  16426-3 0  9991
2 49402  97.3160 259.7848 0014251  36.4080 323.8125 15.27513611261717
HO-113
1 50466U 21131B   26218.66042471  .00000521  00000-0  17432-3 0  9996
2 50466  98.4977 310.7783 0003163 321.4481  38.6481 14.41400267242380
SNUGLITE 2
1 52899U 22065F   26218.38914072  .00000598  00000-0  12228-3 0  9991
2 52899  98.2267   3.1510 0006639 218.0502 142.0232 14.64430423218344
UmKA 1 (RS40S)
1 57172U 23091G   26218.55050831  .00003037  00000-0  13858-3 0  9994
2 57172  97.5014 277.0617 0011006 307.9424  52.0816 15.21342845171665
CubeBel-2 (EU11S)
1 57175U 23091K   26218.55118888  .00006905  00000-0  23791-3 0  9998
2 57175  97.5014 282.2496 0007746 299.3224  60.7242 15.30322875172008
RS-38S
1 57189U 23091Z   26218.47992751  .00009745  00000-0  26676-3 0  9993
2 57189  97.5055 289.0188 0005673 240.1419 119.9262 15.37536732172418
SONATE-2
1 59112U 24043Q   26218.40785402  .00030801  00000-0  34529-3 0  9998
2 59112  97.5577  12.0483 0005431  24.2348 335.9164 15.62614313135725
GRBBeta
1 60237U 24128C   26218.58840830  .00002495  00000-0  17839-3 0  9991
2 60237  61.9900  39.3903 0033844 145.6965 214.6324 15.06957794113864
